Location: Amarillo Post Office Jordan Station
(35.1907°N, 101.9342°W)
Time: 13:21:36
(UTC+00:00)

SL-4 R/B - Pass Details

Date: 24 January 2021
Orbit: 427 x 664 km, 51.6° (Epoch: 03 March)

Event Time Altitude Azimuth Distance (km) Brightness Sun altitude
Exits shadow 13:11:21 11° 300° (WNW) 1,634 3.8 -8.6°
Maximum altitude 13:13:32 16° 337° (NNW) 1,398 3.7 -8.2°
Drops below altitude 10° 13:16:02 10° 15° (NNE) 1,772 4.6 -7.7°
Sets 13:19:05 0° 38° (NE) 2,725 5.8 -7.1°
